Date,TemperatureHighF,TemperatureAvgF,TemperatureLowF,DewpointHighF,DewpointAvgF,DewpointLowF,HumidityHigh,HumidityAvg,HumidityLow,PressureMaxIn,PressureMinIn,WindSpeedMaxMPH,WindSpeedAvgMPH,GustSpeedMaxMPH,PrecipitationSumIn
2013-1-1,37,35,32,36,28,23,100,75,58,0.00,40.00,13,7,26,0.21
2013-1-2,34,33,31,33,30,24,100,91,73,0.00,40.00,8,3,20,0.00
2013-1-3,37,33,30,34,32,30,100,97,83,0.00,40.00,7,2,20,0.20
2013-1-4,33,30,26,31,28,25,100,90,75,0.00,40.00,6,3,14,0.02
2013-1-5,36,34,31,35,30,27,99,84,73,0.00,40.00,9,5,18,0.28
2013-1-6,36,33,30,31,28,19,100,81,52,0.00,40.00,10,6,24,0.01
2013-1-7,34,31,27,32,29,23,100,90,73,0.00,40.00,10,4,17,0.00
2013-1-8,29,26,23,29,24,19,100,92,74,0.00,40.00,6,2,13,0.00
2013-1-9,32,25,19,31,21,17,100,86,63,0.00,40.00,6,3,11,0.00
2013-1-10,35,29,25,32,28,25,100,95,76,0.00,40.00,9,3,15,0.00
2013-1-11,36,33,28,34,31,27,100,94,73,0.00,40.00,9,3,17,0.04
2013-1-12,42,37,32,38,33,28,100,84,69,0.00,40.00,7,5,14,1.24
2013-1-13,41,40,38,40,37,33,100,92,74,0.00,40.00,9,5,15,1.03
2013-1-14,41,37,28,40,33,21,100,86,72,0.00,40.00,13,6,24,0.76
2013-1-15,31,26,24,24,21,18,88,80,65,0.00,40.00,6,3,14,0.02
2013-1-16,32,28,22,31,26,20,100,90,69,0.00,40.00,4,2,8,0.00
2013-1-17,22,18,15,20,15,12,94,88,80,0.00,40.00,7,3,14,0.00
2013-1-18,18,16,13,15,12,9,92,85,75,0.00,40.00,7,2,11,0.00
2013-1-19,37,31,17,33,25,14,92,78,65,0.00,40.00,12,8,28,0.16
2013-1-20,41,37,31,34,30,28,100,78,61,0.00,40.00,12,4,24,0.25
2013-1-21,44,38,29,33,30,25,100,74,62,0.00,40.00,12,6,24,0.01
2013-1-22,43,41,40,32,31,29,71,67,62,0.00,40.00,11,8,30,0.00
2013-1-23,41,39,35,31,30,27,80,69,64,0.00,40.00,8,5,15,0.00
2013-1-24,40,35,29,32,30,27,100,82,68,0.00,40.00,7,2,13,0.00
2013-1-25,33,23,9,33,16,-5,100,77,46,0.00,40.00,10,6,20,0.00
2013-1-26,10,6,1,-4,-9,-14,66,50,38,0.00,40.00,9,6,19,0.00
2013-1-27,4,0,-4,-4,-12,-16,71,56,42,0.00,40.00,13,6,21,0.00
2013-1-28,21,5,-3,14,-4,-19,92,66,44,0.00,40.00,13,7,23,0.00
2013-1-29,31,24,21,25,20,16,93,83,77,0.00,40.00,8,5,16,0.00
2013-1-30,42,37,31,34,30,25,93,79,66,0.00,40.00,11,6,26,0.14
2013-1-31,39,32,26,35,32,26,100,100,87,0.00,40.00,4,1,7,0.07
2013-2-1,40,37,26,33,30,26,100,78,66,0.00,40.00,11,7,20,0.01
2013-2-2,41,39,37,32,31,29,78,72,65,0.00,40.00,15,7,30,0.00
2013-2-3,43,37,31,32,29,26,84,72,60,0.00,40.00,12,5,24,0.00
2013-2-4,40,36,34,31,28,26,85,74,65,0.00,40.00,6,3,14,0.00
2013-2-5,40,34,26,29,26,23,94,73,59,0.00,40.00,6,2,11,0.00
2013-2-6,29,26,22,29,23,20,100,91,83,0.00,40.00,8,3,16,0.00
2013-2-7,37,29,22,29,24,19,100,82,64,0.00,40.00,8,3,21,0.00
2013-2-8,36,32,28,33,30,27,100,91,74,0.00,40.00,7,2,15,0.00
2013-2-9,43,37,34,34,30,27,91,77,66,0.00,40.00,13,7,36,0.21
2013-2-10,38,32,27,33,30,23,100,92,73,0.00,40.00,10,4,24,0.05
2013-2-11,31,24,18,23,15,7,89,70,44,0.00,40.00,7,5,19,0.03
2013-2-12,35,31,26,30,25,22,100,80,71,0.00,40.00,7,4,14,0.00
2013-2-13,36,30,24,29,26,23,100,86,65,0.00,40.00,10,4,19,0.00
2013-2-14,38,32,28,31,28,25,100,84,66,0.00,40.00,14,5,23,0.04
2013-2-15,29,23,17,29,20,11,100,88,75,0.00,40.00,12,6,23,0.01
2013-2-16,31,23,14,24,14,7,82,69,45,0.00,40.00,9,4,20,0.00
2013-2-17,31,25,20,25,21,17,100,84,72,0.00,40.00,8,3,18,0.00
2013-2-18,23,18,10,17,5,-2,78,57,40,0.00,40.00,9,5,16,0.00
2013-2-19,30,22,11,25,15,3,83,75,64,0.00,40.00,11,5,21,0.00
2013-2-20,36,27,20,27,23,19,100,86,63,0.00,40.00,10,3,18,0.01
2013-2-21,28,26,22,26,25,19,100,96,86,0.00,40.00,6,2,12,0.01
2013-2-22,27,22,16,19,14,10,93,74,54,0.00,40.00,9,5,18,0.00
2013-2-23,33,28,22,31,22,12,100,80,56,0.00,40.00,9,4,18,0.00
2013-2-24,37,31,26,32,26,22,100,83,72,0.00,40.00,5,4,11,0.00
2013-2-25,38,34,26,27,25,21,80,70,61,0.00,40.00,11,6,21,0.00
2013-2-26,39,36,33,28,26,23,79,68,57,0.00,40.00,11,8,20,0.02
2013-2-27,40,33,28,32,27,21,100,78,61,0.00,40.00,9,4,17,0.01
2013-2-28,37,31,26,31,28,25,100,90,67,0.00,40.00,6,2,11,0.02
2013-3-1,33,28,23,30,27,21,100,95,79,0.00,40.00,4,1,9,0.01
2013-3-2,38,31,20,27,23,19,100,75,55,0.00,40.00,6,4,13,0.03
2013-3-3,39,37,33,29,27,25,74,67,59,0.00,40.00,11,8,23,0.03
2013-3-4,43,38,33,31,29,27,79,68,58,0.00,40.00,9,4,20,0.01
2013-3-5,44,34,28,29,26,23,90,73,52,0.00,40.00,5,3,9,0.00
2013-3-6,47,37,33,30,28,25,88,70,49,0.00,40.00,6,4,10,0.00
2013-3-7,41,36,33,33,29,24,100,76,59,0.00,40.00,16,8,33,0.05
2013-3-8,41,36,32,32,26,21,100,69,49,0.00,40.00,13,6,29,0.01
2013-3-9,42,34,29,32,28,25,100,82,51,0.00,40.00,7,3,13,0.00
2013-3-10,34,30,27,31,26,22,98,87,77,0.00,40.00,8,4,14,0.06
2013-3-11,35,30,26,25,21,14,90,72,49,0.00,40.00,11,6,18,0.01
2013-3-12,32,25,20,14,8,0,61,47,34,0.00,40.00,10,6,19,0.01
2013-3-13,29,21,15,9,4,-1,57,46,33,0.00,40.00,6,4,12,0.00
2013-3-14,30,21,15,21,14,6,95,75,55,0.00,40.00,7,5,13,0.00
2013-3-15,39,28,20,19,13,6,85,55,26,0.00,40.00,6,3,11,0.00
2013-3-16,38,29,22,23,10,3,83,48,30,0.00,40.00,4,3,10,0.00
2013-3-17,35,27,17,20,7,0,78,45,28,0.00,40.00,6,3,11,0.00
2013-3-18,30,23,18,12,8,3,62,51,34,0.00,40.00,8,5,16,0.00
2013-3-19,27,20,15,10,3,-4,78,49,29,0.00,40.00,11,6,20,0.00
2013-3-20,26,18,11,10,0,-4,75,46,26,0.00,40.00,8,5,14,0.00
2013-3-21,31,22,11,14,8,4,73,56,36,0.00,40.00,7,3,14,0.00
2013-3-22,34,31,26,32,24,10,100,78,50,0.00,40.00,7,4,15,0.00
2013-3-23,38,30,28,27,24,22,93,79,60,0.00,40.00,7,3,13,0.03
2013-3-24,28,24,20,25,22,19,100,92,79,0.00,40.00,5,3,9,0.01
2013-3-25,22,15,6,22,11,3,100,85,76,0.00,40.00,12,6,22,0.00
2013-3-26,21,12,5,14,7,2,91,82,57,0.00,40.00,7,4,12,0.00
2013-3-27,28,15,7,16,9,5,92,79,54,0.00,40.00,4,2,7,0.01
2013-3-28,37,34,32,30,27,23,94,76,59,0.00,40.00,9,6,25,0.01
2013-3-29,44,37,32,34,30,26,100,75,57,0.00,40.00,10,4,21,0.07
2013-3-30,44,35,30,34,31,27,100,87,52,0.00,40.00,4,2,11,0.03
2013-3-31,45,34,28,32,28,25,96,80,55,0.00,40.00,4,2,11,0.01
2013-4-1,42,33,28,35,27,21,100,80,63,0.00,40.00,5,2,11,0.01
2013-4-2,42,34,26,25,21,17,93,63,39,0.00,40.00,5,3,10,0.00
2013-4-3,44,35,29,26,22,20,75,59,43,0.00,40.00,6,4,11,0.00
2013-4-4,42,34,28,23,20,12,73,55,40,0.00,40.00,7,5,14,0.00
2013-4-5,39,31,24,25,16,9,85,54,41,0.00,40.00,7,4,13,0.00
2013-4-6,34,29,21,30,24,11,100,82,54,0.00,40.00,8,3,16,0.00
2013-4-7,20,18,12,12,10,6,81,70,62,0.00,40.00,13,7,23,0.00
2013-4-8,24,17,9,13,8,5,86,67,48,0.00,40.00,9,6,15,0.00
2013-4-9,20,15,11,16,9,5,90,78,67,0.00,40.00,11,5,20,0.00
2013-4-10,19,13,8,9,5,0,89,70,52,0.00,40.00,10,6,20,0.00
2013-4-11,26,17,9,12,4,0,83,56,40,0.00,40.00,9,5,16,0.00
2013-4-12,29,19,12,5,2,-1,63,49,30,0.00,40.00,11,8,21,0.00
2013-4-13,31,23,14,8,4,1,58,44,31,0.00,40.00,10,8,19,0.00
2013-4-14,40,29,19,21,9,2,71,45,28,0.00,40.00,9,4,20,0.00
2013-4-15,38,30,21,20,15,12,82,55,38,0.00,40.00,9,5,16,0.00
2013-4-16,35,28,22,17,11,7,64,49,33,0.00,40.00,10,7,16,0.00
2013-4-17,35,27,18,12,9,5,62,46,32,0.00,40.00,10,6,17,0.00
2013-4-18,41,31,22,20,13,8,67,48,32,0.00,40.00,8,5,14,0.00
2013-4-19,44,33,23,22,15,12,62,48,31,0.00,40.00,6,3,11,0.00
2013-4-20,44,36,25,22,17,14,70,49,30,0.00,40.00,5,3,13,0.00
2013-4-21,36,34,29,32,27,22,100,78,59,0.00,40.00,11,6,19,0.01
2013-4-22,47,37,26,30,27,24,100,71,40,0.00,40.00,6,3,13,0.01
2013-4-23,41,38,35,40,34,28,100,88,61,0.00,40.00,12,5,21,0.25
2013-4-24,43,37,34,38,34,32,100,91,76,0.00,40.00,7,2,16,0.04
2013-4-25,41,36,30,33,16,8,89,47,29,0.00,40.00,16,10,33,0.01
2013-4-26,40,32,23,20,10,7,52,40,25,0.00,40.00,12,6,21,0.00
2013-4-27,40,34,28,17,14,11,59,45,32,0.00,40.00,12,7,22,0.00
2013-4-28,42,34,27,15,9,2,50,36,28,0.00,40.00,13,8,21,0.00
2013-4-29,43,34,27,21,16,12,66,48,30,0.00,40.00,8,4,13,0.00
2013-4-30,45,38,29,27,24,20,74,58,42,0.00,40.00,6,3,13,0.00
2013-5-1,44,38,32,28,26,20,76,62,44,0.00,40.00,9,5,15,0.00
2013-5-2,44,38,32,39,35,28,100,89,73,0.00,40.00,5,2,9,0.10
2013-5-3,41,38,33,39,34,28,100,85,71,0.00,40.00,5,3,11,0.13
2013-5-4,38,34,30,38,32,27,100,93,71,0.00,40.00,4,2,10,0.21
2013-5-5,43,36,27,32,28,23,98,75,55,0.00,40.00,9,4,14,0.01
2013-5-6,44,36,29,28,25,23,88,66,46,0.00,40.00,10,4,16,0.00
2013-5-7,45,38,33,31,27,23,71,63,47,0.00,40.00,7,4,11,0.00
2013-5-8,51,41,31,30,28,26,82,62,41,0.00,40.00,6,3,10,0.00
2013-5-9,49,41,34,35,31,28,85,69,49,0.00,40.00,5,2,11,0.00
2013-5-10,58,46,35,38,29,-100,86,58,26,0.00,40.00,5,2,11,0.00
2013-5-11,47,42,38,44,38,34,100,85,73,0.00,40.00,7,2,12,0.06
2013-5-12,52,44,39,46,41,37,100,90,71,0.00,40.00,5,1,9,0.07
2013-5-13,51,42,37,43,40,37,100,90,69,0.00,40.00,7,3,16,0.08
2013-5-14,45,38,32,37,29,19,100,73,36,0.00,40.00,9,4,16,0.17
2013-5-15,47,37,29,31,24,15,85,61,29,0.00,40.00,6,3,13,0.01
2013-5-16,45,38,35,35,14,-100,100,70,59,0.00,40.00,12,6,23,0.11
2013-5-17,40,35,32,38,28,-100,100,92,72,0.00,40.00,8,4,19,0.42
2013-5-18,38,33,29,30,24,15,100,71,46,0.00,40.00,7,5,15,0.06
2013-5-19,47,37,26,28,17,13,80,47,26,0.00,40.00,8,5,15,0.01
2013-5-20,45,39,28,31,26,19,87,64,37,0.00,40.00,10,4,14,0.00
2013-5-21,50,44,37,33,31,29,80,63,47,0.00,40.00,6,3,11,0.00
2013-5-22,50,44,40,44,37,32,91,77,66,0.00,40.00,4,2,9,0.01
2013-5-23,53,45,40,43,41,37,100,86,63,0.00,40.00,5,2,9,0.01
2013-5-24,58,49,40,41,38,34,92,68,46,0.00,40.00,8,3,13,0.00
2013-5-25,60,50,39,39,35,33,80,59,38,0.00,40.00,7,3,12,0.00
2013-5-26,57,45,37,43,37,33,91,75,48,0.00,40.00,5,2,7,0.00
2013-5-27,57,49,41,41,39,36,100,70,50,0.00,40.00,8,4,12,0.00
2013-5-28,73,54,36,46,39,35,100,65,29,0.00,40.00,5,3,9,0.00
2013-5-29,68,60,51,43,38,35,62,45,34,0.00,40.00,7,3,11,0.00
2013-5-30,60,54,47,45,40,36,77,61,51,0.00,40.00,6,3,10,0.00
2013-5-31,56,48,42,46,43,39,100,82,65,0.00,40.00,8,3,12,0.00
2013-6-1,52,46,44,47,45,44,100,96,79,0.00,40.00,4,1,8,0.09
2013-6-2,57,48,38,44,39,35,100,74,43,0.00,40.00,6,3,12,0.05
2013-6-3,52,47,44,38,36,33,75,64,52,0.00,40.00,9,6,16,0.00
2013-6-4,54,46,41,46,40,34,90,78,62,0.00,40.00,7,3,11,0.04
2013-6-5,57,47,37,43,37,31,100,71,42,0.00,40.00,8,3,14,0.01
2013-6-6,61,51,41,40,33,30,78,53,33,0.00,40.00,8,5,11,0.00
2013-6-7,66,53,38,39,35,32,85,54,32,0.00,40.00,10,3,16,0.00
2013-6-8,67,58,48,43,39,33,64,49,37,0.00,40.00,8,3,13,0.00
2013-6-9,67,59,50,44,41,38,70,52,38,0.00,40.00,9,4,16,0.00
2013-6-10,63,57,47,46,42,37,79,59,44,0.00,40.00,8,4,16,0.00
2013-6-11,68,58,48,47,43,40,76,57,40,0.00,40.00,6,2,10,0.00
2013-6-12,67,56,48,47,42,40,75,61,39,0.00,40.00,7,3,9,0.00
2013-6-13,62,55,44,49,45,39,91,70,52,0.00,40.00,7,4,12,0.02
2013-6-14,66,55,41,51,45,40,97,70,42,0.00,40.00,7,3,13,0.00
2013-6-15,64,58,49,50,46,42,79,64,52,0.00,40.00,6,3,10,0.00
2013-6-16,72,63,50,52,47,43,82,57,39,0.00,40.00,6,3,9,0.00
2013-6-17,75,64,54,50,46,41,72,52,34,0.00,40.00,5,2,9,0.00
2013-6-18,74,67,60,54,47,40,64,49,33,0.00,40.00,7,4,15,0.00
2013-6-19,60,53,49,51,46,41,93,76,54,0.00,40.00,10,4,19,0.19
2013-6-20,56,51,49,49,45,41,86,80,72,0.00,40.00,5,3,9,0.02
2013-6-22,55,53,48,45,40,37,79,63,54,0.00,40.00,5,3,17,0.00
2013-6-23,57,53,49,44,42,38,77,67,58,0.00,40.00,4,2,10,0.00
2013-6-24,64,54,46,53,48,44,100,83,59,0.00,40.00,7,2,11,0.02
2013-6-25,69,59,46,53,48,44,94,68,43,0.00,40.00,3,2,8,0.01
2013-6-26,76,63,54,57,51,46,82,68,39,0.00,40.00,6,2,12,0.03
2013-6-27,62,54,46,56,50,46,100,87,70,0.00,40.00,8,2,12,0.03
2013-6-28,62,56,53,53,51,48,93,82,69,0.00,40.00,5,2,10,0.02
2013-6-29,64,56,50,55,50,45,93,81,58,0.00,40.00,6,3,11,0.02
2013-6-30,61,54,47,52,48,43,95,81,68,0.00,40.00,5,2,20,0.00
2013-7-1,55,50,46,45,42,41,89,74,64,0.00,40.00,9,4,17,0.06
2013-7-2,57,50,43,47,44,41,96,79,54,0.00,40.00,6,3,13,0.01
2013-7-3,60,51,46,47,43,40,88,73,53,0.00,40.00,6,2,10,0.00
2013-7-4,56,51,45,48,44,39,95,80,66,0.00,40.00,6,3,11,0.12
2013-7-5,57,51,47,50,46,44,94,84,64,0.00,40.00,5,2,11,0.15
2013-7-6,59,52,45,48,45,43,95,78,61,0.00,40.00,7,3,18,0.06
2013-7-7,56,49,45,51,47,43,99,90,77,0.00,40.00,8,4,14,0.17
2013-7-8,57,50,44,50,45,42,99,86,72,0.00,40.00,7,3,17,0.03
2013-7-9,63,52,42,49,44,40,96,77,49,0.00,40.00,9,4,15,0.00
2013-7-10,67,58,45,52,44,-100,96,66,46,0.00,40.00,8,4,12,0.00
2013-7-11,75,63,49,50,46,42,78,57,37,0.00,40.00,6,3,16,0.00
2013-7-12,74,62,49,51,47,44,84,62,42,0.00,40.00,8,4,12,0.00
2013-7-13,71,60,51,52,48,42,83,65,48,0.00,40.00,6,3,11,0.00
2013-7-14,65,57,47,51,49,45,93,74,57,0.00,40.00,9,4,15,0.00
2013-7-15,68,54,45,53,48,44,98,81,57,0.00,40.00,8,4,13,0.00
2013-7-16,64,61,54,55,52,51,90,75,66,0.00,40.00,9,6,14,0.00
2013-7-17,69,60,52,59,54,50,95,84,66,0.00,40.00,9,5,17,0.00
2013-7-18,72,64,56,60,56,53,93,79,64,0.00,40.00,9,5,16,0.00
2013-7-19,62,57,52,56,51,49,96,83,66,0.00,40.00,11,6,19,0.00
2013-7-20,64,54,48,53,48,-100,97,83,63,0.00,40.00,9,4,15,0.00
2013-7-21,72,59,45,51,46,42,95,66,38,0.00,40.00,9,3,19,0.00
2013-7-22,74,65,56,51,46,42,64,51,38,0.00,40.00,7,5,17,0.00
2013-7-23,75,63,53,53,48,41,79,61,37,0.00,40.00,5,2,8,0.00
2013-7-24,77,65,52,55,51,48,90,62,38,0.00,40.00,8,3,14,0.00
2013-7-25,72,64,55,58,55,49,85,73,58,0.00,40.00,10,4,17,0.00
2013-7-26,61,59,57,58,56,55,98,93,82,0.00,40.00,4,2,9,0.23
2013-7-27,67,58,49,58,54,49,100,90,73,0.00,40.00,5,2,9,0.13
2013-7-28,71,61,53,59,55,51,99,84,63,0.00,40.00,5,2,9,0.00
2013-7-29,71,61,52,60,54,51,99,81,61,0.00,40.00,7,3,13,0.00
2013-7-30,68,61,50,57,53,49,99,78,63,0.00,40.00,7,3,15,0.00
2013-7-31,71,60,52,55,52,50,97,78,56,0.00,40.00,7,3,13,0.00
2013-8-1,68,60,50,55,50,46,98,73,56,0.00,40.00,6,3,12,0.00
2013-8-2,67,58,52,52,49,46,90,74,53,0.00,40.00,8,5,21,0.00
2013-8-3,61,58,54,50,47,44,77,65,58,0.00,40.00,12,7,26,0.00
2013-8-4,63,56,50,55,49,46,97,79,62,0.00,40.00,5,3,10,0.03
2013-8-5,62,55,51,52,49,47,95,81,65,0.00,40.00,5,3,12,0.09
2013-8-6,63,57,53,55,50,47,84,77,65,0.00,40.00,8,6,19,0.07
2013-8-7,61,57,53,50,48,47,82,72,63,0.00,40.00,8,5,21,0.00
2013-8-8,59,54,48,52,46,40,96,76,57,0.00,40.00,8,4,19,0.02
2013-8-9,63,55,47,53,48,43,97,79,64,0.00,40.00,10,4,26,0.06
2013-8-10,63,54,46,53,48,45,98,80,56,0.00,40.00,6,4,10,0.01
2013-8-11,53,50,47,53,49,45,100,96,88,0.00,40.00,3,1,6,0.80
2013-8-21,54,52,49,53,50,45,100,94,80,0.00,40.00,4,2,8,0.45
2013-8-22,55,52,51,53,52,50,100,98,94,0.00,40.00,4,2,8,0.25
2013-8-23,60,54,45,52,50,44,99,87,73,0.00,40.00,8,4,15,0.01
2013-8-24,66,56,43,50,44,40,97,69,39,0.00,40.00,10,4,19,0.00
2013-8-25,68,56,46,45,41,35,84,60,40,0.00,40.00,5,3,12,0.00
2013-8-26,64,53,43,50,43,36,87,71,49,0.00,40.00,5,3,10,0.00
2013-8-27,58,50,47,49,46,44,93,87,68,0.00,40.00,3,1,5,0.00
2013-9-24,47,40,29,40,28,19,81,63,50,0.00,40.00,7,3,20,0.03
2013-9-25,51,47,41,45,40,37,88,77,64,0.00,40.00,9,4,31,0.30
2013-9-26,52,46,42,46,42,39,97,88,74,0.00,40.00,6,3,15,0.03
2013-9-27,49,46,42,39,37,35,84,72,62,0.00,40.00,14,9,27,0.01
2013-9-28,53,45,38,42,36,31,88,73,47,0.00,40.00,8,4,19,0.01
2013-9-29,47,43,41,37,32,28,79,67,52,0.00,40.00,8,5,19,0.00
2013-9-30,49,43,38,33,30,27,77,61,43,0.00,40.00,9,5,16,0.00
2013-12-26,22,18,15,13,9,4,76,68,55,0.00,40.00,4,1,7,0.00
2013-12-27,32,25,18,26,16,7,92,70,58,0.00,40.00,5,3,11,0.00
2013-12-28,31,24,18,28,21,16,94,90,80,0.00,40.00,5,2,10,0.00
2013-12-29,36,30,24,30,26,22,94,83,69,0.00,40.00,5,3,10,0.01
2013-12-30,36,30,26,27,25,22,90,81,70,0.00,40.00,4,2,10,0.01
2013-12-31,39,36,29,33,30,26,91,78,64,0.00,40.00,15,8,30,0.17
2014-1-1,38,35,31,34,32,29,97,89,81,0.00,40.00,9,6,23,0.22